Theta_e
282 282 282 282 282 283 281 281 281 281 283 277 272 270 279 279 275 275 279 279 274 277 280 280 279 281 281 282 283 283 284 281 279 278 279 279 278 277 277 278 278 278 278 278 278 278 278 278 278 278 278 278 277 277 278 278 277 278 277 276 276 276 276 276 275 275 275 276 276 275 276 276 276 276 276 276 276 276 276 276 276 276 276 275 275 275 275
280 280 280 280 279 278 278 278 279 280 279 278 277 277 279 279 277 279 278 278 278 280 280 280 282 282 281 280 280 279 279 279 279 279 278 278 277 277 278 278 278 278 278 278 278 277 277 278 278 278 278 278 278 279 279 278 278 278 276 277 277 275 275 275 275 275 275 275 276 276 276 276 276 275 275 275 275 275 275 275 275 275 275 275 275 275 275
273 274 278 279 278 278 276 278 278 278 277 277 278 279 279 278 277 278 278 277 277 282 282 281 281 279 278 279 279 280 279 279 279 278 278 278 278 278 278 277 278 277 277 277 277 277 278 278 278 279 279 279 279 278 278 278 278 277 277 275 275 275 275 275 274 275 275 275 275 275 275 275 274 274 274 273 273 273 273 273 273 273 274 273 274 274 274
268 271 274 276 274 273 272 273 275 275 275 274 277 275 277 276 275 277 275 271 275 280 280 278 278 277 278 280 279 279 279 278 278 278 278 278 278 278 278 278 278 277 277 277 277 278 278 278 277 277 277 277 278 277 277 277 276 275 275 274 274 274 274 274 274 274 274 274 273 273 273 272 272 271 271 271 271 271 271 271 272 272 272 272 272 272 272
265 270 272 273 268 270 271 273 276 276 277 278 278 277 277 278 278 272 271 273 279 279 280 279 278 277 277 276 275 276 277 277 278 278 278 278 278 278 278 278 278 277 277 277 277 277 277 277 277 277 277 277 277 276 276 275 274 274 274 273 273 273 273 273 273 273 273 272 271 270 270 270 269 269 269 269 269 269 269 270 270 270 270 270 270 271 271
264 267 270 269 267 263 268 273 278 278 276 276 274 275 277 278 278 276 278 277 277 275 276 278 279 278 277 275 275 275 276 276 275 275 275 276 277 276 276 277 277 276 276 276 276 276 276 276 277 277 277 276 275 275 274 274 273 273 272 272 272 272 271 271 272 271 270 269 269 268 268 268 268 268 267 267 268 268 268 268 268 268 268 268 268 268 268
265 264 266 267 266 268 273 276 277 277 278 277 276 277 277 277 277 277 277 277 276 279 279 280 280 277 275 274 275 275 275 275 276 275 275 275 275 275 275 275 276 277 277 277 276 276 277 277 276 275 275 274 274 273 273 272 272 271 271 270 270 271 270 270 269 268 268 267 266 267 266 266 266 266 266 266 266 266 266 266 266 265 265 265 265 266 266
270 268 269 263 265 273 274 275 275 277 277 276 275 274 276 277 277 277 277 278 278 278 278 275 274 274 274 275 275 275 275 276 276 275 276 276 276 276 276 277 277 277 277 278 278 278 277 275 274 274 273 273 272 272 271 271 269 270 269 268 269 269 268 268 267 267 266 265 265 264 265 264 264 264 264 264 264 264 264 264 264 264 264 264 264 264 264
269 270 269 271 269 272 275 275 273 275 274 273 273 268 273 277 274 276 275 277 277 275 273 273 274 274 273 274 274 276 276 276 276 277 277 277 276 277 277 277 278 278 278 277 277 276 274 273 273 272 272 271 271 269 269 268 267 267 267 267 268 267 267 266 265 265 265 264 263 263 263 262 262 262 262 262 262 263 262 262 262 262 262 263 263 263 263
271 265 265 263 261 264 269 273 274 277 276 274 276 274 269 271 267 271 276 275 269 270 272 273 274 272 274 272 274 276 277 275 276 276 277 276 276 276 277 276 277 276 276 276 275 273 272 272 271 271 270 269 269 268 267 267 265 266 266 266 266 265 265 263 264 264 263 262 262 262 261 260 261 261 261 262 261 262 261 261 261 261 262 262 262 262 262
268 265 266 265 262 265 270 268 270 275 273 275 272 268 266 272 271 272 273 271 272 273 274 273 273 271 266 270 274 275 275 275 275 276 277 277 277 277 277 278 277 276 275 274 273 272 271 270 270 269 267 267 267 266 266 266 265 264 265 265 264 263 263 263 263 262 261 261 261 260 260 260 260 260 260 260 261 261 261 261 261 261 261 260 260 261 261
270 267 266 265 265 265 270 270 274 276 274 275 272 260 260 267 270 270 273 273 273 273 274 273 272 272 265 270 274 275 276 276 276 277 278 276 275 275 276 276 276 276 273 272 271 271 270 270 268 267 266 266 265 265 265 265 264 263 264 263 263 263 263 262 262 260 260 260 260 259 259 259 259 260 260 260 260 260 260 260 260 260 260 260 259 259 260
272 272 267 267 267 271 269 272 275 275 275 272 262 264 267 269 272 273 275 274 275 274 272 273 271 274 277 278 278 275 275 276 276 275 275 276 276 276 276 276 277 274 272 272 271 270 270 268 267 266 265 264 264 264 264 264 263 264 263 263 262 262 262 260 259 259 259 258 259 259 259 259 259 259 259 260 260 259 259 259 259 259 258 258 258 259 259
270 271 269 269 272 272 269 272 277 276 272 263 267 273 272 274 273 274 275 275 274 274 274 274 276 277 277 276 275 275 275 276 276 277 275 275 275 275 275 275 274 272 270 269 268 268 267 267 266 264 263 263 262 263 262 261 262 263 262 262 261 259 259 258 258 258 257 258 258 258 258 258 258 258 259 259 259 258 259 258 258 258 258 258 258 258 259
271 270 267 268 264 273 277 276 274 274 268 270 275 272 272 273 274 273 273 275 275 274 275 276 276 277 275 275 275 275 275 275 275 276 275 275 275 274 273 273 271 271 269 268 267 267 266 265 265 264 260 260 261 261 260 261 262 262 262 261 261 259 258 258 257 257 257 257 257 257 257 258 257 257 258 258 258 258 257 257 257 257 257 257 257 257 258
265 269 266 266 274 275 277 278 272 272 277 276 276 275 275 274 274 274 274 274 275 275 276 276 275 275 276 275 274 274 274 274 275 275 274 275 275 274 273 273 271 269 269 267 267 266 265 264 263 263 259 259 259 259 260 262 262 260 259 259 258 256 256 256 256 256 256 256 257 257 256 257 257 257 257 257 257 257 257 257 257 257 257 257 257 257 257
267 266 271 273 276 276 277 280 279 278 280 279 275 276 277 275 275 275 275 275 275 275 275 276 276 276 275 276 276 275 276 276 275 275 275 275 275 274 272 270 269 268 268 266 265 264 264 262 262 260 259 258 258 257 260 261 259 258 257 256 255 255 255 255 255 255 255 255 256 256 256 256 256 257 257 257 256 257 257 257 257 256 256 256 256 256 257
272 272 273 274 274 273 275 278 279 278 277 275 275 276 276 275 277 276 276 277 276 276 276 275 275 276 276 276 275 275 275 275 275 275 273 272 272 271 268 266 266 266 265 264 263 263 263 262 262 260 259 258 256 258 260 259 258 257 256 254 254 254 254 255 255 255 255 255 256 256 256 256 256 257 257 257 256 257 257 256 256 256 256 256 256 256 257
268 264 273 273 275 274 275 278 279 277 276 277 276 275 277 278 278 276 277 278 278 277 276 276 276 277 276 276 276 276 275 275 274 274 273 272 271 270 268 268 265 263 262 262 261 261 260 260 259 258 257 257 258 258 257 259 258 256 253 253 254 254 254 255 255 255 255 255 256 256 256 256 256 257 257 257 256 256 256 256 256 256 257 257 257 258 258
271 269 272 274 276 276 276 277 277 277 278 277 276 277 278 278 278 277 278 277 276 276 274 276 276 277 277 276 276 275 275 275 274 273 273 271 269 268 268 266 264 262 262 262 260 260 260 261 259 258 256 256 256 256 256 257 254 253 253 253 254 254 254 254 255 254 255 257 257 256 256 256 256 256 257 257 256 256 256 257 257 257 258 258 259 259 260
272 274 275 274 274 274 276 276 275 276 277 277 276 276 276 276 276 277 276 276 277 277 277 277 276 275 276 276 276 275 275 273 273 272 272 271 270 268 265 263 262 264 262 260 259 259 259 259 257 256 255 255 254 256 257 255 254 252 253 254 254 253 254 254 254 255 255 255 255 255 256 256 256 257 256 256 257 257 259 260 260 259 260 261 262 264 264
266 269 274 275 268 270 276 278 278 278 277 276 276 276 275 275 275 276 276 276 276 276 277 277 276 275 276 276 275 274 274 274 273 272 271 269 267 265 264 262 261 260 259 258 258 257 258 257 256 255 254 255 255 257 255 254 253 252 253 253 251 253 254 253 254 254 255 255 255 255 255 255 256 256 260 265 264 262 261 266 269 270 270 266 266 267 267
270 275 276 277 278 277 278 279 277 276 276 276 275 276 276 277 277 276 276 276 275 274 274 275 275 275 276 276 274 274 274 273 273 273 270 268 266 264 262 260 258 259 258 257 256 255 256 256 255 254 254 255 254 254 255 255 254 253 252 253 253 254 254 254 255 256 255 255 255 255 255 256 256 256 256 258 264 267 267 267 268 269 270 271 272 272 269
276 277 278 277 276 276 278 278 278 278 277 276 276 276 277 277 277 277 276 276 276 276 276 274 274 275 276 276 274 274 274 273 270 268 267 267 265 263 261 262 260 258 257 257 256 256 255 255 254 253 254 254 254 254 253 253 253 252 252 252 253 254 254 254 255 256 255 255 256 255 255 256 256 255 255 255 256 263 267 267 268 269 269 270 271 271 271
277 279 279 278 276 277 278 278 278 278 278 276 276 276 276 276 276 275 275 275 275 276 276 276 274 273 274 275 274 274 274 271 267 267 265 264 263 262 261 259 258 258 258 257 256 255 254 253 253 253 254 254 254 253 254 252 252 252 252 252 253 253 254 254 255 256 256 255 255 255 255 255 255 255 255 255 255 256 259 265 267 268 268 269 269 269 270
280 280 280 276 273 277 277 276 276 276 276 275 273 273 274 275 276 275 274 275 275 275 275 276 275 273 273 273 272 268 267 266 266 266 264 263 261 260 259 258 258 257 257 256 255 255 253 253 253 252 253 254 254 254 252 252 252 252 252 252 253 253 254 254 255 255 255 255 255 255 256 256 255 256 256 256 256 256 256 257 258 262 266 267 268 268 268
280 280 278 275 274 276 277 276 278 280 279 275 274 276 276 275 275 275 273 271 270 269 271 273 272 269 266 266 266 266 269 265 264 263 262 261 260 260 258 256 257 257 256 255 254 254 254 254 253 253 254 254 253 253 252 251 251 250 251 253 252 255 256 256 254 255 255 256 255 255 255 255 255 256 256 257 257 257 256 256 256 256 257 259 264 268 265
279 279 279 276 276 277 279 279 279 279 279 275 273 274 275 271 269 268 269 270 268 264 263 262 265 264 266 262 265 265 265 265 265 263 261 259 258 257 256 255 256 255 255 254 253 253 254 253 252 253 254 254 254 254 251 250 250 251 253 253 253 254 254 255 255 255 255 255 255 255 255 256 257 257 257 257 257 257 257 257 257 257 257 258 259 264 267
279 279 279 279 280 281 280 276 273 273 275 272 271 271 268 268 268 269 270 271 269 264 265 261 261 262 265 263 265 266 265 263 263 261 260 258 257 256 256 255 254 253 253 253 253 252 251 251 251 252 253 253 253 253 251 249 250 251 253 253 253 253 254 254 254 255 255 255 255 256 258 258 257 256 257 257 257 257 256 256 257 257 257 257 258 259 262
279 278 275 276 277 277 276 276 276 274 273 273 270 268 267 270 269 269 269 269 264 267 266 262 260 261 261 261 261 264 264 263 261 259 258 257 256 254 254 254 253 253 253 253 252 251 250 250 252 252 254 253 254 252 250 249 251 250 252 253 252 253 254 254 255 256 256 256 256 257 257 256 256 256 256 256 256 256 256 256 257 257 256 257 259 257 258
277 274 275 276 275 274 274 276 276 276 275 273 271 269 264 264 268 270 269 268 264 265 263 262 262 260 260 262 261 260 259 258 257 256 256 256 254 255 254 254 252 252 252 254 252 249 251 252 252 253 254 253 252 252 250 249 250 250 252 253 252 255 257 257 258 257 255 255 255 255 255 255 255 255 255 256 256 255 256 256 256 256 256 256 256 257 258
276 272 272 273 274 273 273 274 274 275 274 271 266 267 267 267 267 269 270 268 267 265 262 260 261 262 260 256 255 255 254 254 254 253 253 253 253 253 253 253 253 253 253 252 251 252 251 251 252 254 254 253 252 251 252 253 250 251 250 253 253 253 254 257 255 256 255 255 255 254 254 254 254 255 255 255 255 255 255 255 255 255 256 256 256 257 258
275 274 272 271 266 266 269 271 271 272 272 270 269 271 271 270 270 270 270 267 263 263 263 263 260 257 255 254 254 254 253 252 251 252 251 251 251 251 251 250 250 250 251 252 252 252 252 252 253 255 254 254 253 253 252 252 252 251 250 249 249 253 254 256 256 255 254 254 253 253 254 254 254 254 254 255 255 256 255 255 255 255 255 256 256 257 258
277 277 278 279 276 274 272 272 271 271 272 271 271 269 266 266 266 266 262 260 261 261 262 259 255 254 254 255 254 253 253 253 251 252 252 251 250 250 250 252 249 249 251 252 252 253 253 254 253 253 254 254 253 253 253 253 252 250 249 249 249 250 250 251 253 252 252 252 253 254 254 254 254 254 255 255 255 254 255 255 255 255 255 255 256 256 259
278 278 278 278 277 276 276 276 275 272 271 271 268 264 265 262 261 260 258 259 259 258 255 254 254 254 254 254 253 253 253 255 253 252 252 252 251 250 251 249 248 248 248 251 252 252 253 253 252 252 251 253 252 252 252 252 249 249 248 249 251 250 250 251 251 250 251 252 252 252 252 253 254 255 256 255 254 254 254 254 255 255 255 255 256 256 257
274 275 275 273 269 265 268 270 271 270 270 270 269 266 261 257 255 256 256 255 255 255 255 254 253 253 253 253 253 252 252 251 250 250 250 251 251 251 250 248 247 247 249 250 253 253 253 252 254 255 253 253 253 252 252 249 248 248 249 249 250 251 251 251 251 251 251 251 251 252 252 254 255 255 254 254 253 253 253 253 254 254 254 255 255 256 256
270 274 275 270 261 256 256 254 253 259 262 263 260 258 255 253 253 252 253 254 254 254 253 252 252 253 253 253 252 250 250 251 251 251 248 247 249 249 249 247 247 247 249 249 251 249 247 246 253 255 255 250 253 250 252 255 251 248 248 248 247 248 249 249 249 249 250 251 251 252 253 253 251 251 253 252 252 252 253 253 254 254 254 255 255 255 255
258 259 260 259 254 253 250 249 250 252 253 251 250 252 253 252 252 252 252 252 252 252 252 252 251 250 250 250 250 249 249 249 247 246 245 245 245 246 245 245 248 248 249 250 247 246 246 249 255 254 249 249 248 248 252 255 256 250 247 247 248 248 249 249 250 251 251 250 252 251 251 250 251 250 251 251 250 251 252 253 253 254 254 254 254 254 254
255 254 252 252 251 251 251 250 249 249 251 252 250 250 250 252 251 251 251 250 250 251 251 249 249 250 250 250 247 246 245 244 244 244 244 244 244 244 247 248 249 250 252 251 249 252 253 254 252 251 250 249 251 250 252 255 256 249 247 247 247 248 249 250 250 251 251 252 251 251 250 250 250 250 251 251 251 252 253 253 254 254 253 253 253 253 253
255 253 252 252 252 251 252 250 249 248 249 250 252 251 251 252 251 250 250 250 251 251 250 250 249 248 247 247 245 245 245 244 244 244 244 243 244 244 246 247 248 250 251 252 252 251 253 254 252 249 249 247 248 247 249 253 255 251 247 246 247 248 249 250 250 250 250 250 251 252 250 250 249 251 251 251 250 251 250 251 251 252 252 252 252 252 253
253 252 252 252 251 251 251 252 250 249 248 249 250 250 251 250 250 250 249 249 250 251 249 247 247 247 246 245 245 245 244 244 244 243 243 244 243 245 246 248 248 248 249 249 249 249 252 253 250 249 249 247 246 252 248 253 251 247 246 247 248 248 249 250 250 251 251 251 250 249 249 249 250 249 250 249 249 249 250 250 251 251 250 251 251 252 252
252 252 252 252 251 250 250 249 250 250 250 250 249 249 249 250 250 249 249 247 247 246 246 246 249 247 244 244 244 244 243 243 242 243 243 245 246 246 247 249 249 250 252 253 253 252 250 248 250 253 249 246 247 254 255 253 247 246 246 247 248 250 250 251 251 251 251 250 249 248 248 248 248 248 249 249 248 249 250 250 250 250 250 251 251 251 251
252 251 251 251 250 249 249 250 250 249 249 249 249 247 247 248 249 247 247 247 246 245 245 244 246 248 248 245 244 243 244 244 243 243 243 244 245 246 248 249 249 250 253 252 251 246 247 246 246 246 252 252 250 254 255 251 247 246 247 248 250 250 251 251 251 251 250 248 248 248 247 247 246 246 248 247 248 248 249 249 249 250 250 250 250 250 251
250 251 250 249 249 249 249 249 249 250 249 249 249 248 247 247 247 248 247 246 246 248 247 245 243 243 243 243 242 242 245 244 244 244 241 244 246 247 246 247 248 250 252 251 250 251 250 249 246 249 254 255 256 256 253 250 251 248 248 249 250 251 251 251 250 249 248 248 248 247 248 248 247 246 245 247 247 248 248 249 249 249 250 250 250 250 250
250 250 250 250 249 249 250 249 250 251 250 250 249 247 246 246 245 245 246 246 245 245 248 247 247 247 244 243 244 245 246 246 246 244 243 246 245 248 245 250 250 250 252 254 251 251 250 248 250 255 255 256 256 256 252 251 252 252 250 250 251 251 251 250 250 250 249 248 247 248 248 247 246 246 245 246 249 249 248 249 249 249 250 249 250 250 250
249 249 249 250 249 249 249 249 249 250 249 249 249 247 246 245 244 243 243 243 243 246 248 248 247 248 248 246 244 246 243 245 245 245 248 248 248 248 246 251 249 253 254 255 252 251 250 254 255 255 256 256 256 254 250 252 253 252 250 250 250 250 251 250 250 249 248 249 249 248 247 247 245 245 245 245 245 248 249 251 251 249 248 249 249 250 250
249 249 249 248 247 247 248 247 247 248 248 249 249 247 246 244 243 242 242 243 243 243 243 246 248 248 249 248 246 244 245 246 247 245 246 247 249 251 252 253 254 255 255 254 252 252 251 251 254 255 256 256 256 250 249 249 251 251 250 250 250 250 250 250 249 249 247 247 248 249 250 249 247 246 247 248 247 247 247 248 248 248 249 250 250 250 250
249 247 246 245 244 243 244 244 246 245 245 248 246 246 245 244 243 242 242 242 242 242 242 241 244 243 244 243 244 245 247 245 245 248 243 245 246 246 247 247 251 255 256 256 256 256 256 256 256 256 256 255 253 252 253 252 252 251 250 250 250 250 249 249 249 248 248 248 248 247 246 245 245 244 245 245 246 247 247 247 248 248 248 248 248 248 248
246 245 244 243 243 243 244 244 244 245 244 242 244 245 244 244 243 243 244 243 242 241 242 241 240 241 241 245 244 245 245 247 249 248 244 243 245 247 250 254 256 256 255 254 253 252 254 255 255 255 255 255 252 251 251 251 251 251 251 251 251 250 250 250 249 248 247 247 247 247 246 247 245 244 245 246 246 247 248 247 247 246 247 248 249 249 248
244 245 245 244 243 243 244 244 243 244 242 243 242 242 243 244 246 246 245 245 245 248 243 240 240 241 242 242 243 245 246 246 249 250 251 251 249 250 251 253 254 255 255 254 253 254 254 255 255 255 254 254 253 253 253 252 252 252 251 252 251 250 251 251 251 251 249 248 247 247 247 247 246 247 248 246 247 247 247 247 246 249 250 250 248 248 247
246 246 245 244 243 242 242 242 243 242 241 243 242 243 246 244 244 248 247 247 245 247 246 244 245 243 242 243 244 242 243 245 248 252 251 250 250 254 255 255 256 256 256 256 255 255 255 254 253 253 254 253 253 253 253 253 253 252 252 251 251 251 250 250 249 248 247 247 246 247 247 246 246 245 245 246 247 247 247 247 247 247 246 246 246 246 247
243 242 242 241 240 240 240 239 239 242 241 243 242 244 245 244 245 245 244 252 246 245 246 245 248 244 243 244 248 247 246 247 249 250 253 253 254 253 254 256 255 255 256 255 255 254 254 255 254 254 253 254 253 253 252 252 252 252 251 251 251 251 250 250 249 248 247 247 247 247 248 247 246 246 246 246 246 247 247 246 246 246 246 246 246 246 246
Wind_Speed
1 2 5 3 2 3 4 6 8 11 12 4 7 5 10 8 8 15 10 4 4 6 10 4 5 8 7 7 9 9 8 4 3 4 5 6 6 5 6 7 8 7 8 7 7 6 6 5 6 7 6 6 5 5 6 6 5 6 5 4 3 1 1 3 3 2 3 3 3 4 5 5 6 7 7 7 7 7 6 7 7 7 8 9 10 11 10
1 2 4 3 5 2 3 7 11 11 9 5 4 10 13 11 11 11 10 9 14 12 10 4 7 6 6 5 2 2 3 4 6 5 6 6 6 8 9 9 9 8 8 6 7 6 6 7 8 7 7 7 7 7 7 6 5 1 2 1 1 2 3 2 3 3 4 4 5 5 7 7 7 7 8 9 9 10 11 10 10 10 10 10 9 10 12
4 2 2 1 2 3 6 9 10 10 2 3 11 11 7 5 5 11 13 12 14 13 7 5 4 1 2 2 4 5 5 5 5 6 6 6 7 8 7 7 7 6 6 6 6 6 8 8 9 9 8 8 6 5 2 1 0 0 1 3 3 3 3 2 3 4 5 5 5 6 6 7 7 8 10 9 10 11 11 11 12 12 12 13 12 11 11
3 1 2 2 3 1 3 9 15 8 3 10 11 9 7 6 12 11 4 5 11 14 3 2 1 3 4 6 5 4 3 3 4 6 6 6 6 6 6 7 6 5 6 6 6 8 8 6 4 4 4 2 1 1 0 2 3 3 4 3 4 3 3 4 5 6 6 6 7 7 7 7 7 7 8 9 10 10 11 12 12 11 12 12 13 12 12
4 1 1 1 3 5 10 17 17 9 13 13 8 5 6 11 7 4 8 12 10 8 5 1 4 5 6 3 4 1 1 3 5 5 5 5 5 6 6 6 6 6 6 6 7 7 6 5 5 5 4 2 4 4 5 2 3 5 4 4 4 4 4 5 5 5 6 6 6 6 7 7 7 8 9 10 10 10 12 10 10 12 12 13 13 12 12
3 1 1 1 1 6 15 0 4 8 9 10 11 12 14 9 7 8 7 8 4 2 3 7 7 9 8 6 4 3 5 5 3 3 4 5 5 5 5 6 6 6 5 4 5 4 4 3 3 4 5 7 5 3 4 4 5 4 4 4 4 4 4 4 5 5 6 5 6 6 6 8 8 9 9 10 9 9 10 11 10 12 12 13 12 12 12
3 1 2 1 9 17 2 1 1 4 8 7 10 9 7 8 8 7 7 6 5 8 8 10 10 3 2 4 4 2 4 3 4 4 4 5 5 5 5 5 5 5 6 4 3 4 5 6 5 6 5 4 4 4 4 5 4 4 4 4 4 5 5 5 5 5 7 5 6 6 6 7 8 8 8 9 10 9 9 10 11 12 12 12 12 10 10
3 3 5 5 12 6 6 8 2 0 0 1 1 6 8 10 10 9 9 12 9 7 8 2 1 6 3 1 3 4 5 5 5 4 5 6 6 6 6 7 8 7 7 8 8 7 4 5 4 4 5 3 5 4 3 5 3 3 3 3 4 4 4 4 4 5 4 5 6 6 7 7 7 9 9 9 10 10 10 10 9 9 11 9 11 12 11
7 4 9 14 5 11 13 13 4 6 7 5 6 6 9 8 5 7 7 8 8 5 1 3 2 2 2 1 3 5 6 5 5 7 8 7 7 7 6 7 7 7 7 7 7 6 5 4 5 4 3 4 5 4 4 3 3 2 3 3 3 2 2 3 3 4 4 4 6 6 6 8 8 8 9 9 8 7 10 10 11 10 10 10 9 11 13
6 5 4 4 2 9 14 6 1 1 3 3 4 4 7 5 2 4 9 8 5 4 4 3 3 2 1 5 6 5 7 6 6 5 6 4 4 4 4 2 1 3 4 5 5 7 7 6 4 3 3 4 4 4 3 2 2 1 1 1 1 2 2 2 3 3 4 4 6 6 6 7 9 9 8 8 8 7 9 11 12 10 9 10 9 8 12
3 2 7 8 7 10 6 3 3 1 2 9 5 1 7 5 6 8 5 5 6 9 9 5 4 3 5 8 7 6 7 4 4 4 6 6 5 5 6 8 8 6 5 6 7 6 7 7 3 3 3 4 5 3 1 1 1 1 1 1 2 2 2 2 3 3 4 4 5 6 7 8 8 9 9 9 8 8 9 9 12 10 9 10 10 8 8
8 7 6 10 5 6 3 5 3 4 3 4 5 2 8 3 3 5 6 8 9 8 7 8 8 8 8 7 9 5 8 9 5 6 6 5 4 4 4 2 4 6 7 8 5 6 6 6 3 3 3 4 4 2 1 0 1 0 0 1 1 1 2 3 3 3 4 4 5 6 8 9 8 8 8 9 9 9 10 9 11 10 9 9 11 10 9
11 11 7 3 6 4 3 5 4 3 2 4 3 11 8 3 6 9 8 10 11 10 7 8 8 10 10 10 7 5 4 2 4 4 4 4 2 5 6 7 7 7 5 6 7 6 5 5 4 3 4 3 2 1 0 0 1 0 1 1 1 1 2 3 4 4 4 4 7 7 7 8 8 8 7 9 10 10 11 10 10 10 10 10 11 11 10
11 9 9 11 7 6 5 3 8 6 4 3 11 7 4 10 7 7 10 10 9 9 13 10 10 10 11 5 1 3 4 7 6 5 4 1 1 1 3 7 9 7 6 6 6 4 4 5 4 3 3 3 2 1 0 1 1 2 1 1 1 1 3 4 4 5 5 5 6 7 7 7 8 9 8 8 9 10 10 10 12 12 10 10 9 10 9
1 2 7 4 9 6 13 9 3 2 5 8 4 2 2 4 7 9 8 9 9 10 10 11 12 10 5 6 8 7 6 6 7 7 6 7 8 8 7 4 4 9 8 8 7 7 5 4 4 3 3 2 1 1 2 3 1 1 0 0 2 2 3 4 5 5 5 6 7 6 6 7 8 10 9 9 9 9 11 11 11 12 11 10 10 10 10
6 9 10 10 9 2 8 13 9 6 10 7 5 4 5 3 5 6 7 9 10 10 12 11 10 10 9 6 5 5 5 6 7 6 5 6 6 6 6 8 10 7 8 6 6 5 5 4 3 3 4 2 2 2 4 1 1 0 0 1 2 3 4 5 6 6 6 6 7 6 7 7 7 9 10 10 9 8 9 9 10 11 9 8 9 10 11
9 9 7 2 3 5 8 10 9 8 12 9 6 5 5 5 6 5 6 9 9 9 11 11 11 10 9 10 9 9 10 9 9 9 10 10 10 11 11 10 9 7 10 10 7 5 5 4 4 3 3 2 2 3 2 2 1 1 1 2 2 4 5 5 6 6 6 6 6 6 6 6 7 8 10 8 10 8 8 9 9 10 10 8 9 10 11
1 3 5 2 0 2 6 8 7 9 7 4 5 6 5 5 7 8 9 9 9 9 10 10 8 9 9 9 9 8 8 8 9 8 4 4 5 5 5 5 7 6 6 6 7 7 5 4 4 3 3 3 2 3 1 0 1 1 2 2 3 5 5 5 6 6 6 6 6 6 6 5 7 8 9 9 9 9 8 9 8 9 10 9 9 11 11
4 5 2 5 6 2 4 11 10 6 4 5 6 5 6 8 7 7 6 9 10 11 10 12 13 13 11 10 10 9 8 9 9 8 9 8 10 12 12 10 9 7 7 7 7 6 6 4 4 3 2 2 3 2 2 2 2 2 2 3 4 5 6 6 6 5 6 6 6 5 5 5 6 7 8 8 9 9 9 9 9 9 10 10 11 11 11
5 7 5 8 7 5 6 8 9 11 11 9 6 8 8 8 7 7 10 8 7 5 6 10 11 13 11 10 11 9 10 10 9 8 8 8 6 6 6 8 8 7 7 8 7 6 6 5 4 3 3 3 3 2 2 3 2 1 2 4 5 5 6 6 6 5 6 7 7 6 6 6 7 8 7 8 8 9 9 10 10 11 10 11 11 11 12
3 4 7 6 1 5 9 10 7 7 8 8 7 6 8 8 9 9 7 6 9 8 11 10 10 11 12 11 12 12 10 8 7 8 9 9 10 9 10 8 9 10 7 6 6 6 5 4 4 3 3 3 2 3 3 3 2 2 4 4 4 5 6 5 6 5 5 5 5 6 7 6 7 7 9 9 10 10 9 9 9 11 8 8 10 11 10
2 8 11 4 2 7 11 15 14 12 11 8 9 7 6 7 9 10 10 10 9 10 10 10 9 11 13 12 10 11 11 11 10 7 7 6 7 7 5 6 6 5 6 6 6 5 4 4 4 3 4 3 3 3 3 3 3 3 4 4 4 6 5 5 6 5 5 5 5 6 6 8 8 8 11 18 15 11 11 16 24 26 23 16 14 12 12
11 12 10 10 12 10 12 11 6 6 6 6 9 11 12 12 11 11 10 11 10 8 11 10 11 12 12 13 10 10 8 9 9 9 8 8 7 8 7 8 5 6 5 5 5 4 4 4 3 3 4 4 3 3 4 4 3 4 4 4 4 5 5 5 6 5 5 5 5 6 6 7 7 9 11 11 19 22 20 21 22 25 25 27 29 27 19
8 9 12 8 8 12 11 10 10 9 7 8 10 11 12 12 12 10 10 11 12 12 10 8 9 12 12 10 7 11 10 8 5 5 5 6 7 7 7 8 7 6 5 5 5 4 4 3 3 3 4 4 3 4 4 4 3 4 4 4 5 5 5 5 6 5 4 5 6 6 6 6 7 7 8 11 14 20 22 21 23 24 25 25 26 24 25
14 14 9 7 9 8 10 11 8 8 9 7 8 11 12 11 10 8 9 10 10 12 10 10 9 9 10 12 10 11 12 8 5 6 6 6 7 8 7 5 6 6 6 4 4 4 3 3 2 3 4 5 4 4 4 4 3 4 4 5 6 5 5 5 5 6 6 5 5 6 7 7 8 7 8 8 11 14 19 25 27 24 20 20 21 22 25
13 13 11 2 4 9 9 2 6 11 12 7 5 5 6 8 10 7 10 11 11 10 11 11 9 9 11 11 10 6 3 4 6 7 7 6 5 5 6 6 5 4 4 4 3 3 2 3 3 3 5 5 4 5 4 4 4 4 5 5 5 5 5 5 6 5 5 5 6 6 6 7 7 8 8 8 9 10 12 14 19 25 30 27 22 21 22
10 11 8 4 6 11 9 11 15 15 13 6 8 10 9 8 11 9 7 6 6 5 6 8 5 2 2 2 4 3 6 6 5 6 5 6 6 6 4 4 4 4 4 4 3 3 3 2 3 4 6 6 4 4 4 4 4 4 4 6 5 6 8 7 4 5 5 5 6 6 6 7 7 7 8 8 9 9 9 11 12 13 13 19 27 29 24
10 11 10 12 15 16 16 15 13 14 11 6 6 9 10 5 3 4 7 7 6 5 1 0 4 5 6 4 6 4 4 7 8 6 5 5 4 4 5 5 4 4 3 2 2 2 1 2 3 4 7 5 4 5 4 4 4 4 5 5 4 5 4 5 5 4 5 5 6 6 7 7 7 7 8 8 9 9 9 9 10 10 11 12 13 20 28
13 12 10 13 16 16 13 3 2 6 9 6 5 5 3 4 7 8 9 9 7 3 4 3 0 3 5 5 5 7 6 5 6 7 6 4 5 4 5 5 4 3 2 1 2 2 2 3 3 5 8 4 4 5 4 4 4 4 5 4 4 4 4 4 4 5 5 5 5 6 8 8 7 7 7 8 8 8 8 9 9 9 10 11 12 15 18
16 6 4 8 11 9 8 10 12 8 8 7 6 7 6 7 7 9 9 8 6 9 8 4 4 4 4 5 5 7 9 9 7 5 6 4 4 4 4 4 3 1 0 3 4 3 3 3 4 6 8 4 4 4 4 4 5 4 5 6 5 5 5 5 5 5 5 5 5 8 6 5 5 6 7 7 7 8 9 8 10 10 11 11 11 10 12
6 5 9 9 10 9 11 15 13 10 10 8 7 7 5 5 8 9 9 7 5 7 5 7 7 5 5 7 4 3 4 5 5 5 4 4 3 3 3 3 2 4 4 4 2 2 3 4 5 7 6 4 4 4 4 4 4 4 4 4 4 6 9 10 8 5 4 4 5 5 5 5 5 6 8 8 8 7 7 7 8 9 9 9 9 9 10
6 6 9 9 10 10 10 10 10 11 11 7 4 7 10 10 11 14 12 9 11 9 6 5 7 10 6 4 5 5 6 6 5 5 4 3 2 1 2 2 3 3 4 4 3 3 4 4 7 8 4 4 4 4 4 5 4 5 5 4 4 3 5 8 6 6 5 6 5 5 6 6 6 5 6 7 7 7 7 8 9 8 8 9 10 9 11
8 9 7 9 4 4 8 9 9 11 11 9 12 12 11 10 10 9 9 6 4 6 9 9 6 4 6 6 7 6 6 6 4 4 2 2 1 2 2 2 3 3 4 4 4 4 4 6 8 7 5 5 4 4 4 4 4 5 5 5 4 4 4 5 6 5 4 5 5 5 4 5 6 6 6 7 7 7 7 8 8 8 8 9 9 9 10
15 15 16 14 11 12 14 15 11 12 11 10 10 8 7 7 9 8 5 5 6 6 7 6 6 7 7 7 7 6 7 6 2 3 3 3 2 2 2 2 2 3 4 4 4 5 5 7 7 7 7 5 5 4 4 4 5 6 5 5 5 5 4 4 5 3 4 5 6 6 5 6 5 6 7 7 6 6 8 8 8 8 8 8 8 8 13
11 12 12 12 10 12 13 13 12 12 12 12 10 8 8 6 5 5 3 5 6 5 5 7 7 7 7 7 7 6 6 6 5 4 4 4 3 3 2 1 1 2 4 6 6 7 7 8 6 7 6 6 5 5 5 5 5 6 5 5 5 4 4 5 3 3 4 4 4 4 4 5 5 5 7 7 6 7 7 7 7 8 7 9 9 9 10
8 10 10 10 9 7 7 9 8 8 9 11 10 7 6 5 5 5 5 4 4 6 6 7 8 7 6 6 6 6 6 4 4 4 4 4 3 2 2 1 1 3 5 9 8 6 7 6 7 8 5 5 4 5 5 4 5 5 5 5 4 4 5 4 4 3 4 3 3 4 3 6 6 7 7 6 6 6 6 6 6 6 7 7 8 9 9
7 11 10 7 3 3 3 1 0 2 4 3 3 5 5 4 5 4 5 6 4 5 6 7 7 6 6 4 3 3 3 3 3 3 3 2 2 1 1 1 2 4 3 6 5 1 3 3 4 6 5 4 5 4 5 7 5 5 4 4 4 3 3 4 3 3 3 2 3 4 5 5 4 4 6 5 5 5 6 6 7 7 6 6 7 7 9
1 1 3 3 4 4 3 2 1 3 8 9 6 4 6 7 6 7 6 5 5 5 4 4 4 4 4 4 3 2 1 1 2 2 2 2 1 1 2 3 5 3 6 8 2 1 2 3 4 4 4 5 5 5 5 8 7 4 4 4 3 3 4 3 4 5 4 3 4 3 3 4 4 5 5 5 5 5 6 6 6 6 6 7 6 7 7
2 4 6 5 5 6 6 4 5 4 4 10 8 6 5 7 6 7 7 6 4 4 6 6 4 5 4 3 1 1 2 2 2 2 2 3 1 2 6 5 7 8 8 3 2 5 6 5 6 6 5 7 5 4 5 7 8 4 4 3 3 3 3 4 3 4 4 4 3 3 3 3 3 5 6 5 5 6 6 7 6 7 6 6 7 7 7
5 4 5 5 6 5 7 7 7 6 5 4 8 9 6 8 7 7 7 6 4 4 5 4 5 4 2 2 2 3 4 3 3 2 5 2 1 3 5 6 9 11 9 10 9 8 9 11 7 6 6 5 4 6 5 6 6 4 4 4 3 4 3 4 3 3 3 3 4 4 4 4 4 6 6 6 5 6 6 6 5 6 6 6 6 6 7
6 7 5 6 6 4 6 7 7 7 6 6 7 7 5 7 7 8 6 5 5 4 5 3 4 2 3 3 3 4 3 2 2 5 1 0 2 4 6 9 3 3 4 5 5 6 8 6 5 6 6 5 3 5 4 7 4 4 4 3 3 3 3 3 3 3 3 3 4 4 4 4 5 5 6 5 5 5 5 5 5 5 5 6 7 6 6
6 7 8 7 6 7 6 7 7 8 7 6 5 6 5 4 5 7 7 5 4 4 4 2 3 2 2 2 1 1 4 4 3 3 2 4 5 5 7 9 4 6 5 7 6 7 5 4 5 5 5 5 5 6 6 6 5 4 4 4 3 3 3 3 3 3 4 3 3 4 4 5 5 5 5 6 5 5 5 5 5 5 5 5 6 6 6
8 9 8 8 8 7 8 7 8 9 7 5 6 4 4 5 8 6 5 4 4 4 3 1 0 0 0 0 1 2 5 4 4 5 5 5 7 7 8 8 6 8 8 7 6 4 5 5 5 5 5 6 5 7 7 4 3 4 4 4 4 3 3 3 3 3 3 3 4 4 4 5 5 5 6 6 6 4 4 5 6 6 6 6 6 7 6
5 6 6 8 8 7 7 8 8 7 9 6 4 4 5 4 4 5 5 4 3 2 3 2 1 2 2 1 1 2 5 4 5 3 1 6 8 6 9 9 8 9 10 7 4 6 6 6 5 6 7 8 8 7 5 3 4 3 4 4 4 4 4 3 4 3 4 4 4 4 5 6 5 6 5 6 5 5 4 5 5 5 6 6 6 6 6
5 5 6 7 7 6 6 6 7 8 6 5 6 4 4 4 3 2 3 3 3 2 3 3 2 2 3 4 5 6 6 5 5 3 1 5 3 7 2 5 6 4 6 6 5 5 6 6 6 7 7 8 8 6 3 3 4 4 3 5 4 4 4 3 4 4 5 4 4 4 6 5 6 5 5 5 5 4 5 5 6 6 6 6 6 7 7
7 6 7 8 8 6 6 5 5 6 7 8 5 2 1 1 1 1 2 3 2 3 3 3 2 3 3 5 4 5 5 6 6 5 7 7 7 6 1 3 4 5 8 8 5 6 6 6 7 7 7 7 6 5 2 3 4 4 3 4 4 4 4 4 4 5 5 5 5 5 5 6 5 6 7 6 4 4 4 6 7 6 6 6 6 6 6
7 7 7 7 7 6 6 5 5 6 5 5 6 3 1 1 1 1 2 4 3 2 2 2 3 4 3 4 5 3 6 5 5 4 7 6 7 7 9 9 9 10 8 6 6 6 5 4 5 6 7 7 6 4 4 4 4 4 4 4 4 4 4 4 4 5 5 5 6 6 6 6 6 6 6 5 5 4 4 5 6 6 6 7 6 7 7
7 7 6 6 7 5 6 5 5 5 4 6 5 4 2 1 0 1 1 1 2 2 2 2 4 5 4 5 5 5 6 2 3 7 3 6 6 5 4 3 5 5 6 5 6 5 6 6 6 6 7 6 5 4 3 4 4 4 4 4 4 4 4 4 5 5 5 4 4 5 6 6 6 5 5 5 5 4 5 5 6 6 6 5 6 6 6
6 7 7 6 5 6 5 5 5 6 4 2 3 2 1 1 0 0 0 1 1 1 3 3 4 5 4 5 4 5 5 4 6 5 2 2 3 3 5 5 7 8 6 4 4 4 5 6 6 7 7 6 4 4 4 4 4 4 4 4 4 4 4 5 5 4 5 5 6 6 6 6 6 5 5 5 5 5 6 6 6 5 6 6 6 7 6
6 6 6 4 4 4 4 4 3 4 3 4 3 1 1 2 2 1 1 1 1 2 1 3 3 3 3 3 3 5 5 5 6 7 7 6 6 5 5 5 4 6 6 4 3 4 4 6 6 6 5 4 4 4 4 4 4 4 4 5 4 4 5 6 5 5 5 6 6 5 6 6 6 6 7 4 5 5 6 6 6 7 10 8 7 6 6
5 4 4 4 2 2 2 2 2 3 4 3 2 1 1 1 1 1 0 0 0 1 1 4 4 3 3 3 4 2 3 5 5 6 6 6 4 5 5 4 4 4 4 4 3 4 3 2 3 4 3 3 4 4 4 4 4 4 4 4 4 5 5 6 6 5 5 6 6 6 6 6 6 6 6 5 6 6 6 7 6 6 6 6 6 6 6
3 3 2 2 2 1 2 1 0 0 1 1 1 1 1 1 1 1 2 2 1 0 0 1 4 3 2 3 3 2 1 2 3 2 3 4 3 3 5 4 3 4 4 3 3 3 3 3 3 4 4 4 4 4 4 4 5 4 4 5 4 6 6 6 6 5 5 6 6 6 6 6 6 6 6 6 6 6 6 6 6 6 6 6 6 6 6
Wind_Direction
160 130 127 152 125 196 198 226 239 252 257 174 155 205 221 199 208 249 253 237 203 248 248 242 195 208 214 234 245 231 227 224 173 163 182 192 191 179 175 188 190 187 193 195 199 201 202 200 204 209 209 215 216 221 220 214 202 212 198 187 201 181 60 26 356 333 333 334 337 340 330 335 339 335 335 331 329 327 321 316 311 308 307 306 307 306 302
307 126 144 204 172 207 225 232 233 240 238 241 177 224 231 216 229 242 258 260 259 253 255 233 253 250 244 236 201 116 140 187 178 178 187 185 182 180 188 195 198 200 199 197 201 202 209 208 211 213 215 216 213 210 220 219 213 264 140 197 110 64 51 17 352 347 348 349 349 346 348 347 344 341 338 338 335 332 327 323 320 317 314 312 308 306 308
274 317 192 197 144 179 247 256 252 241 211 186 219 234 244 244 263 255 251 261 273 268 244 227 265 195 126 129 168 191 190 169 175 182 193 191 190 196 200 203 208 208 210 211 208 207 216 216 216 212 213 214 216 223 275 355 257 274 115 90 96 70 38 18 1 359 359 351 348 354 351 347 346 345 340 338 333 328 324 322 321 320 318 316 313 311 310
297 314 153 247 58 23 252 273 264 250 207 250 242 231 214 208 230 239 250 262 257 265 292 107 160 174 180 190 194 198 207 199 179 189 202 199 204 209 213 219 219 219 220 221 219 223 228 234 251 266 274 290 270 275 78 66 61 73 78 70 58 44 27 13 11 6 357 353 358 354 356 349 342 339 333 330 327 321 318 319 317 316 313 309 309 312 310
259 276 156 160 39 13 314 258 250 238 236 237 256 260 228 219 221 208 223 236 241 247 268 269 258 216 227 207 190 195 241 217 200 203 202 209 217 216 220 224 226 227 224 224 222 226 224 216 208 214 202 141 86 92 85 79 82 59 58 53 37 34 22 14 9 5 4 3 354 351 347 342 336 335 330 323 321 321 315 313 313 309 308 310 305 310 311
243 291 171 60 45 259 243 5 140 188 224 231 227 240 243 236 175 213 209 236 239 230 218 220 242 230 219 190 220 193 171 186 204 225 220 217 213 223 226 217 208 212 211 221 221 217 212 193 146 114 111 113 114 98 98 70 61 48 48 27 34 19 19 13 9 13 11 3 349 341 339 336 333 327 326 317 316 314 310 310 309 305 305 304 305 309 311
215 225 57 259 235 247 293 324 309 177 211 220 220 240 244 236 228 230 255 257 225 220 217 218 231 204 141 164 151 218 238 188 190 198 218 220 220 222 215 215 218 204 198 194 181 160 146 137 134 116 95 111 115 79 67 68 55 52 35 29 23 15 11 9 18 14 6 352 340 332 331 328 325 320 316 314 312 311 309 307 308 306 307 308 306 308 308
56 112 174 224 240 271 307 276 209 1 55 221 49 304 264 246 226 209 216 236 231 228 231 254 170 141 152 113 255 229 238 191 193 201 235 237 205 211 214 196 207 197 193 179 170 160 143 121 113 107 120 123 100 98 83 76 58 51 47 34 16 17 11 21 20 6 355 338 329 326 323 322 317 312 310 306 307 310 305 301 297 297 296 297 302 306 305
193 207 191 235 2 313 290 279 207 169 215 172 167 234 264 238 199 180 195 227 236 221 233 168 145 108 97 86 271 251 241 241 210 201 219 211 217 213 222 198 204 200 183 167 155 131 127 120 115 109 116 105 105 99 76 68 69 53 45 29 9 23 35 21 11 358 347 331 321 317 318 314 307 303 303 303 301 305 299 297 297 297 293 294 299 299 299
142 162 254 320 289 253 257 250 81 301 195 136 169 151 280 283 240 190 165 211 187 159 173 178 155 76 85 271 263 236 235 229 222 232 234 242 226 220 226 220 202 148 141 116 115 129 124 106 101 109 106 109 104 93 87 76 74 64 63 19 47 46 26 8 355 344 333 322 313 312 307 301 298 295 295 293 292 298 294 298 296 293 293 293 290 288 291
88 141 215 223 226 243 232 264 248 151 156 124 126 73 277 268 184 211 171 153 176 172 168 195 137 128 203 244 242 233 225 255 220 213 230 222 221 202 194 177 170 171 145 133 130 118 116 114 116 111 111 104 96 95 102 92 69 59 14 76 59 24 350 352 337 325 312 311 303 300 296 290 291 294 296 294 294 294 286 287 286 290 290 289 288 282 278
218 208 221 238 222 253 268 223 199 190 110 87 64 341 271 263 190 163 156 174 184 201 195 159 163 168 210 237 247 210 208 212 217 187 220 227 225 215 198 196 165 144 133 122 122 127 132 137 135 123 107 94 91 104 100 101 59 352 105 97 73 13 351 330 307 302 298 294 290 286 286 288 286 286 291 295 293 293 289 284 286 287 285 284 286 286 284
228 223 245 319 285 270 192 161 213 169 162 75 121 227 234 228 176 192 179 186 192 182 175 173 182 222 204 217 219 186 191 189 259 247 234 227 207 190 180 170 143 140 150 148 150 152 142 141 137 130 110 100 116 143 154 133 245 192 109 72 29 341 318 298 289 283 284 277 279 275 273 282 287 288 288 289 294 290 289 288 283 285 284 282 282 283 285
223 222 226 232 266 236 180 270 161 174 97 196 221 237 182 156 199 199 191 198 206 180 183 194 208 220 223 232 200 180 185 197 217 215 212 181 53 68 144 149 147 141 140 133 129 129 140 142 144 133 122 119 146 178 179 237 219 126 80 45 343 304 282 281 280 279 274 272 264 269 275 279 288 289 284 283 283 286 284 286 287 286 285 283 283 285 282
161 152 233 245 252 256 146 137 55 262 155 232 210 197 249 188 187 180 208 207 215 183 209 209 213 228 232 215 222 222 219 212 224 225 194 180 179 164 149 162 180 151 150 160 165 160 158 154 143 143 117 120 155 199 228 244 141 99 169 270 280 275 280 277 275 273 269 267 271 268 274 274 281 288 289 287 282 279 284 286 285 286 288 287 289 289 288
163 193 206 205 221 139 155 142 188 208 212 207 192 161 243 202 168 189 198 220 213 199 201 211 225 229 231 244 237 241 244 232 238 237 219 206 190 183 188 176 169 160 153 158 157 162 158 153 141 134 115 147 193 210 247 191 143 107 277 269 272 281 279 275 275 274 268 266 265 269 272 281 280 282 285 283 281 280 281 283 289 292 288 290 291 292 293
155 198 215 257 222 169 196 181 201 201 216 213 167 168 188 189 232 196 192 221 220 203 208 217 212 224 224 225 220 208 225 221 221 223 216 197 191 187 183 179 171 167 165 167 159 162 168 156 146 138 139 148 196 225 220 131 241 242 259 264 279 278 276 275 274 271 270 268 271 270 272 274 282 282 282 283 286 281 281 285 286 288 290 290 290 290 290
243 264 196 229 199 150 199 225 208 206 228 209 168 186 223 235 218 175 192 218 217 211 208 210 233 224 228 225 233 227 229 222 226 223 208 192 188 170 146 149 169 163 147 148 157 169 184 169 158 153 168 162 202 229 177 210 243 248 256 276 278 271 272 273 273 276 281 278 271 272 275 268 264 272 277 286 284 288 287 283 285 287 291 291 285 284 281
112 267 154 182 206 198 204 209 229 244 248 228 180 196 218 232 221 212 221 214 213 211 198 203 216 227 228 228 232 226 226 224 222 206 199 195 183 177 187 184 153 147 152 157 174 177 189 192 173 178 183 209 210 239 257 252 254 258 262 265 270 274 275 276 278 276 278 287 291 284 280 277 269 270 276 275 280 284 285 288 287 285 286 288 288 282 276
205 234 224 222 218 204 202 195 213 234 245 248 223 208 217 223 229 210 219 213 231 217 199 209 214 231 232 222 230 227 222 221 215 207 204 196 194 209 182 158 161 152 165 173 178 180 194 193 176 185 206 227 233 236 250 256 254 258 265 262 266 271 275 276 278 274 274 280 287 295 287 283 287 285 274 273 276 279 286 285 290 288 283 282 276 275 279
261 291 271 238 302 299 273 255 231 226 230 229 241 227 225 233 239 244 240 202 218 214 222 216 213 227 238 225 222 222 222 218 215 210 204 197 196 175 167 178 168 176 172 173 177 174 192 176 176 191 228 242 238 231 245 245 232 243 259 264 268 275 275 276 275 274 272 278 285 287 292 282 266 266 280 284 278 273 259 251 259 272 261 248 259 268 274
215 213 236 165 193 248 247 246 244 237 233 222 235 245 241 236 239 243 245 246 228 226 230 226 215 221 235 231 217 222 219 211 210 208 202 195 180 178 173 150 164 156 161 160 164 171 185 174 179 199 242 253 243 237 240 243 225 229 255 267 273 273 270 272 275 280 283 284 284 286 284 290 291 283 265 284 286 288 290 290 292 294 294 292 292 292 293
237 237 230 207 217 237 244 252 246 226 220 197 213 227 234 239 233 231 231 245 258 241 240 229 218 224 229 233 214 219 220 219 211 201 186 178 181 177 164 152 161 164 163 154 148 164 185 172 183 208 244 254 256 258 241 240 221 231 245 262 267 270 278 277 281 289 292 292 288 284 283 287 287 294 303 297 295 294 294 299 301 300 299 296 298 301 302
252 244 236 199 184 220 244 248 246 251 232 199 212 223 226 230 233 229 224 227 232 247 245 235 212 220 228 233 201 215 223 221 196 191 186 178 174 160 164 171 168 163 165 165 173 186 182 173 197 217 250 253 239 254 246 243 234 228 239 241 263 271 272 278 286 289 285 287 292 290 290 286 288 295 299 307 308 307 309 311 308 304 301 301 303 307 308
234 234 238 216 194 224 238 240 245 245 244 211 207 224 225 228 237 227 222 232 229 229 236 241 231 205 214 227 205 209 213 208 186 168 157 151 153 160 166 159 172 176 181 176 168 165 163 187 209 230 250 259 239 246 245 236 228 232 242 241 257 271 272 279 282 290 296 290 290 289 294 299 299 298 299 303 308 312 317 318 315 309 304 306 311 314 316
234 246 247 137 144 225 234 281 281 257 252 223 212 244 237 216 226 227 226 225 232 223 223 229 230 219 208 216 212 211 170 156 159 142 148 160 152 145 165 179 175 152 148 147 152 163 181 203 221 240 257 259 244 245 240 239 231 230 245 248 254 259 272 278 286 288 287 285 287 289 287 290 290 296 293 294 296 301 310 317 323 324 325 324 323 324 319
231 235 243 268 253 248 224 210 241 244 245 210 200 227 234 228 224 228 237 237 238 248 235 245 259 245 168 206 162 163 177 139 130 159 164 162 172 178 165 143 142 143 143 145 163 183 198 216 228 245 259 260 246 243 244 240 240 248 250 255 258 263 271 281 270 276 281 285 288 288 290 290 291 291 293 295 298 302 304 309 311 312 310 317 321 327 327
233 227 192 211 233 242 243 232 232 251 257 216 206 223 236 234 235 240 247 248 250 245 257 32 177 166 185 180 154 133 118 156 175 168 163 173 148 129 134 133 130 133 139 152 192 212 218 233 241 256 264 259 248 244 242 232 236 248 255 260 264 274 269 276 279 269 278 276 281 285 288 287 286 293 297 299 302 300 301 299 298 296 300 307 308 313 320
238 231 206 213 229 240 251 269 191 221 242 240 212 220 176 194 226 226 237 231 224 175 211 221 183 184 173 179 173 172 171 167 171 178 170 144 139 131 125 122 120 124 134 193 239 231 237 240 244 257 266 259 246 247 242 234 239 246 259 260 269 268 273 272 267 270 271 272 268 275 292 299 300 297 295 296 294 294 299 301 299 297 303 307 311 315 322
242 223 171 220 232 244 253 257 248 235 233 229 202 219 204 206 225 235 228 229 194 208 218 165 153 185 159 160 186 181 185 190 176 142 134 133 126 118 116 113 90 103 168 243 247 230 219 229 235 251 264 265 245 242 238 236 245 241 248 256 255 261 262 261 262 276 277 277 283 297 295 289 289 291 295 295 295 299 303 302 305 310 310 312 316 314 319
234 161 196 212 221 223 222 237 243 242 238 239 222 223 212 192 225 239 237 222 201 218 196 184 190 170 187 191 166 125 97 107 114 117 112 110 109 109 121 124 162 230 224 238 230 219 225 244 245 255 258 251 248 246 240 241 244 251 256 253 249 263 283 295 294 284 277 286 292 297 294 292 287 294 298 300 303 302 301 301 305 306 305 308 309 313 316
254 208 210 216 218 217 227 234 236 238 237 227 202 220 212 201 217 229 233 219 214 204 176 166 185 200 184 126 123 119 109 103 103 106 107 108 118 139 150 178 204 232 238 244 246 241 245 252 261 260 257 249 247 248 241 245 247 253 253 256 262 264 272 289 286 287 285 289 294 293 294 300 301 299 297 298 298 302 307 310 310 310 311 312 314 314 318
232 247 250 239 240 243 241 242 224 239 238 224 220 224 223 217 226 231 230 206 163 174 184 199 184 134 134 135 124 120 113 109 103 113 130 164 202 212 208 198 204 214 232 236 238 238 236 248 258 270 266 253 251 248 238 241 247 249 251 254 252 264 272 279 290 294 295 282 281 283 289 295 296 298 292 296 298 304 308 305 307 307 310 307 307 310 308
218 225 234 235 202 207 220 233 220 228 240 234 230 226 223 216 216 221 206 178 175 179 188 169 137 138 137 136 133 126 128 123 157 202 195 196 214 229 221 205 206 216 239 256 258 252 247 244 250 258 264 264 258 252 247 243 243 237 247 245 254 259 261 261 276 277 279 282 281 291 293 294 294 295 298 301 303 308 309 309 306 307 308 308 307 307 318
218 229 232 240 226 213 215 221 218 214 223 234 234 222 217 202 190 193 167 165 177 168 132 122 134 134 134 131 136 146 159 185 183 163 172 184 191 199 195 200 312 320 290 270 253 252 243 246 243 249 257 259 252 247 242 239 230 240 241 242 248 251 256 270 272 270 273 281 287 290 297 294 294 299 304 303 302 305 304 301 302 307 309 312 313 317 318
202 225 235 238 236 228 226 227 228 220 211 219 225 210 191 173 151 146 151 144 112 120 125 127 129 128 130 142 153 166 182 186 174 174 177 190 199 182 166 197 278 298 295 294 273 250 250 241 238 232 228 234 239 239 236 231 241 233 242 242 245 258 263 265 268 268 267 270 279 283 282 296 307 308 300 293 297 300 297 297 302 304 304 305 308 317 317
209 216 229 223 191 160 177 123 332 208 190 186 147 130 133 127 130 106 100 110 113 112 125 125 123 138 159 160 145 139 151 167 170 186 192 180 149 140 173 250 266 264 277 287 280 228 238 227 226 223 224 232 240 244 243 247 242 238 241 243 247 253 260 269 267 268 274 274 277 283 291 301 297 289 289 289 294 294 292 296 302 304 304 304 313 314 318
141 322 219 158 145 125 89 34 4 102 106 77 51 86 125 126 119 114 106 102 104 108 104 106 119 119 113 98 101 130 158 162 177 192 201 221 192 186 239 207 245 218 242 237 239 263 265 236 236 250 256 246 243 236 242 242 249 246 232 236 239 245 259 258 271 276 282 284 282 293 294 297 302 301 293 294 287 286 293 299 304 307 308 311 310 312 313
107 66 67 84 91 94 98 60 38 35 79 118 109 87 88 107 107 106 100 93 89 92 91 94 101 96 104 121 146 273 269 246 228 220 228 252 232 190 237 225 232 228 240 249 266 270 264 262 260 257 251 243 239 238 233 245 252 245 232 227 238 240 244 254 263 270 281 288 297 292 296 302 295 289 291 293 291 293 296 303 306 306 306 307 313 314 316
130 126 130 124 108 107 93 77 61 67 52 80 120 127 131 110 106 106 108 101 84 89 106 115 118 127 137 153 194 250 262 254 248 239 254 259 308 290 284 264 251 257 255 260 262 263 260 259 252 243 241 240 229 232 236 236 242 234 224 228 231 236 241 249 253 267 273 283 290 300 303 300 292 286 291 292 296 297 303 305 307 305 306 307 308 310 314
125 123 122 109 109 101 105 103 88 64 70 79 83 93 96 113 119 111 120 130 129 104 111 122 125 143 171 184 202 236 271 277 246 243 228 97 298 279 276 280 252 239 240 244 245 245 250 247 226 232 241 234 232 230 228 237 237 224 223 226 230 234 242 246 249 257 271 283 288 293 293 295 293 295 291 293 292 295 296 297 299 300 299 305 308 310 311
133 123 118 115 113 113 105 106 109 94 76 76 85 90 98 109 114 129 134 125 113 115 120 133 145 169 187 189 199 268 292 283 283 272 220 215 243 259 274 274 262 266 267 264 265 257 244 245 237 229 234 234 232 241 238 231 216 215 221 225 232 237 241 250 251 260 259 261 269 276 280 279 281 284 288 287 292 295 303 306 306 304 303 302 305 307 308
140 138 131 126 126 124 126 121 114 119 112 95 92 103 104 95 96 101 107 116 124 123 123 111 84 350 13 162 206 282 280 289 293 285 292 263 235 224 237 266 291 282 277 281 278 258 246 237 240 244 238 234 233 233 244 235 218 223 222 229 232 238 240 245 253 260 263 264 268 261 263 269 267 273 282 283 282 291 299 304 304 304 304 304 303 306 306
123 117 121 124 124 126 120 117 119 116 117 118 105 101 104 98 111 123 127 128 130 135 151 198 209 236 242 213 183 250 266 264 266 260 235 300 311 269 220 237 257 267 277 263 263 253 256 244 240 236 244 247 249 248 237 225 228 221 225 227 231 235 240 251 257 260 256 260 258 263 264 266 269 268 270 282 294 297 295 294 293 292 293 296 295 295 298
106 111 113 111 113 113 112 116 125 126 108 101 102 87 92 111 104 113 131 143 156 180 181 191 193 209 199 189 204 221 230 228 223 183 220 276 280 287 254 201 229 249 263 260 247 239 243 245 240 242 247 250 249 249 240 230 231 232 228 226 229 235 238 242 246 249 254 252 257 262 263 263 263 267 266 269 278 288 294 299 295 294 298 300 303 304 304
100 99 110 112 107 102 105 106 98 105 112 103 84 70 90 150 145 151 156 163 176 202 199 196 197 215 205 211 229 247 258 259 244 222 224 214 226 249 241 247 248 253 268 266 243 239 243 247 249 251 255 257 254 249 230 234 232 237 235 234 235 235 243 241 245 250 248 249 257 260 261 263 265 262 257 256 261 274 282 288 288 291 284 285 286 290 292
109 101 95 100 96 92 93 93 98 101 108 114 115 127 135 156 167 187 204 199 197 219 228 230 243 249 230 217 215 248 275 295 284 231 224 245 250 262 266 272 275 275 272 260 250 252 246 247 249 254 257 255 256 235 223 227 233 238 234 236 235 241 244 246 248 246 247 253 257 255 260 263 267 268 272 279 283 280 278 283 283 282 286 289 290 294 298
113 109 105 104 108 102 92 90 99 109 121 146 156 145 154 107 119 297 283 223 225 263 272 266 255 264 256 248 237 225 210 192 311 302 226 214 230 226 258 256 255 259 265 260 259 256 254 255 260 263 261 261 252 237 228 229 233 236 236 240 244 241 243 248 251 243 252 252 255 259 264 264 262 261 264 265 271 271 271 273 274 283 283 284 286 290 293
90 103 102 94 95 98 106 108 115 122 150 174 132 145 180 121 75 24 39 92 336 306 271 266 259 263 263 240 222 224 224 210 184 227 263 192 231 261 267 266 280 285 279 265 263 260 258 255 261 261 263 262 251 241 237 240 242 244 241 246 245 245 244 246 245 245 246 255 252 252 255 260 262 260 266 269 268 270 273 272 271 269 275 280 284 287 287
111 106 104 109 117 122 129 117 136 164 171 139 154 186 107 86 77 30 339 29 336 293 325 305 282 275 271 280 251 235 208 201 226 242 260 273 274 267 262 261 260 267 265 250 251 258 247 254 255 257 258 255 248 244 239 242 239 245 249 254 253 258 249 248 255 254 247 252 257 259 260 259 260 260 260 260 264 265 264 263 268 272 278 280 280 282 283
122 119 144 161 166 174 183 169 178 168 163 172 164 165 134 107 145 261 114 270 141 0 316 316 306 291 298 301 292 272 213 214 222 229 239 250 253 262 266 268 266 270 266 265 259 263 258 241 241 249 254 255 254 252 242 246 244 247 249 252 253 254 254 256 254 259 259 253 253 255 258 258 256 258 257 259 263 267 266 268 269 271 273 271 273 275 277
112 110 101 111 122 127 195 263 309 90 144 113 115 115 117 148 159 308 309 303 140 198 270 4 333 297 243 267 285 287 267 222 220 235 265 272 274 275 279 284 283 282 280 269 272 266 265 270 269 267 267 263 263 263 263 256 251 250 245 247 245 246 247 251 251 254 258 257 254 259 257 255 250 253 261 258 259 259 266 264 265 266 269 271 271 273 277